Change the Weather History Date:

Wednesday, October 8, 2014

  Actual Average Record
Temperature  
Mean Temperature 76 °F 71 °F  
Max Temperature 86 °F 82 °F 95 °F (1990)
Min Temperature 65 °F 59 °F 35 °F (1991)
Degree Days  
Heating Degree Days 0 0  
Month to date heating degree days 10 0  
Since 1 July heating degree days 10 1  
Cooling Degree Days 11 6  
Month to date cooling degree days 48 58  
Year to date cooling degree days 2391 2414  
Growing Degree Days 25 (Base 50)    
Moisture  
Dew Point 67 °F    
Average Humidity 74    
Maximum Humidity 100    
Minimum Humidity 48    
Precipitation  
Precipitation 0.00 in - 0.31 in (2008)
Sea Level Pressure  
Sea Level Pressure 30.13 in    
Wind  
Wind Speed 1 mph (SW)    
Max Wind Speed 8 mph    
Max Gust Speed 12 mph    
Visibility 6 miles    
Events Fog    
T = Trace of Precipitation, MM = Missing Value Source: NWS Daily Summary

Daily Weather History Graph

Daily Weather History Graph

Search for Another Location

Airport or City:

Trip Planner

Search our weather history database for the weather conditions in past years. The results will help you decide how hot, cold, wet, or windy it might be!

Date:

Astronomy

Oct. 08, 2014 Rise Set
Actual Time 7:35 AM EDT 7:13 PM EDT
Civil Twilight 7:10 AM EDT 7:37 PM EDT
Nautical Twilight 6:42 AM EDT 8:05 PM EDT
Astronomical Twilight 6:14 AM EDT 8:33 PM EDT
Moon 7:30 PM EDT (10/8) 7:39 AM EDT (10/8)
Length of Visible Light 12h 26m
Length of Day
11h 37m
Full, 100% of the Moon is Illuminated
Oct 8
Full
Oct 15
Last Quarter
Oct 23
New
Oct 30
First Quarter
Nov 6
Full

Hourly Weather History & Observations

Time (EDT) Temp. Heat Index Dew Point Humidity Pressure Visibility Wind Dir Wind Speed Gust Speed Precip Events Conditions
12:53 AM 68.0 °F - 64.9 °F 90% 30.12 in 10.0 mi SSW 3.5 mph - N/A   Clear
1:53 AM 68.0 °F - 64.9 °F 90% 30.11 in 10.0 mi WSW 3.5 mph - N/A   Clear
2:53 AM 66.9 °F - 64.9 °F 93% 30.10 in 10.0 mi Calm Calm - N/A   Clear
3:50 AM 64.4 °F - 62.6 °F 94% 30.09 in 10.0 mi Calm Calm - N/A   Scattered Clouds
3:53 AM 64.9 °F - 63.0 °F 93% 30.09 in 8.0 mi Calm Calm - N/A   Scattered Clouds
4:08 AM 64.4 °F - 64.4 °F 100% 30.09 in 10.0 mi Calm Calm - N/A   Mostly Cloudy
4:42 AM 66.2 °F - 64.4 °F 94% 30.09 in 10.0 mi Calm Calm - N/A   Overcast
4:53 AM 66.0 °F - 64.9 °F 96% 30.09 in 9.0 mi Calm Calm - N/A   Overcast
4:57 AM 66.2 °F - 64.4 °F 94% 30.09 in 1.5 mi Calm Calm - N/A   Overcast
5:05 AM 66.2 °F - 64.4 °F 94% 30.09 in 0.2 mi Calm Calm - N/A Fog Fog
5:17 AM 66.2 °F - 66.2 °F 100% 30.09 in 0.5 mi Calm Calm - N/A Fog Fog
5:33 AM 68.0 °F - 66.2 °F 94% 30.10 in 0.5 mi Calm Calm - N/A Fog Fog
5:53 AM 66.9 °F - 66.9 °F 100% 30.11 in 0.2 mi Calm Calm - N/A Fog Fog
6:02 AM 68.0 °F - 66.2 °F 94% 30.11 in 0.5 mi West 3.5 mph - N/A Fog Fog
6:53 AM 68.0 °F - 68.0 °F 100% 30.12 in 0.8 mi Calm Calm - N/A   Mist
7:49 AM 68.0 °F - 68.0 °F 100% 30.15 in 0.2 mi Calm Calm - N/A Fog Fog
7:53 AM 68.0 °F - 68.0 °F 100% 30.15 in 0.2 mi Calm Calm - N/A Fog Fog
8:53 AM 68.0 °F - 68.0 °F 100% 30.17 in 0.2 mi Calm Calm - N/A Fog Fog
9:29 AM 69.8 °F - 69.8 °F 100% 30.18 in 0.5 mi Calm Calm - N/A Fog Fog
9:30 AM 69.8 °F - 69.8 °F 100% 30.18 in 0.2 mi Calm Calm - N/A Fog Fog
9:35 AM 69.8 °F - 69.8 °F 100% 30.18 in 0.5 mi Calm Calm - N/A Fog Fog
9:53 AM 69.1 °F - 69.1 °F 100% 30.19 in 1.0 mi Calm Calm - N/A   Overcast
10:27 AM 69.8 °F - 69.8 °F 100% 30.20 in 2.5 mi Calm Calm - N/A   Overcast
10:49 AM 71.6 °F - 69.8 °F 94% 30.20 in 5.0 mi Calm Calm - N/A   Overcast
10:53 AM 71.1 °F - 70.0 °F 96% 30.19 in 5.0 mi Calm Calm - N/A   Overcast
11:51 AM 78.8 °F - 68.0 °F 69% 30.20 in 10.0 mi Variable 3.5 mph - N/A   Mostly Cloudy
11:53 AM 78.1 °F - 68.0 °F 71% 30.19 in 10.0 mi Variable 4.6 mph - N/A   Mostly Cloudy
12:53 PM 82.0 °F 85.5 °F 69.1 °F 65% 30.17 in 10.0 mi Calm Calm - N/A   Partly Cloudy
1:53 PM 82.9 °F 85.4 °F 66.9 °F 58% 30.14 in 10.0 mi Variable 3.5 mph - N/A   Clear
2:53 PM 84.9 °F 87.1 °F 66.0 °F 53% 30.11 in 10.0 mi South 3.5 mph - N/A   Partly Cloudy
3:53 PM 86.0 °F 88.2 °F 66.0 °F 51% 30.10 in 10.0 mi NW 8.1 mph - N/A   Scattered Clouds
4:53 PM 86.0 °F 87.6 °F 64.9 °F 49% 30.09 in 10.0 mi Calm Calm - N/A   Clear
5:53 PM 84.9 °F 86.6 °F 64.9 °F 51% 30.08 in 10.0 mi SW 4.6 mph - N/A   Clear
6:53 PM 81.0 °F 83.8 °F 68.0 °F 65% 30.08 in 10.0 mi SSW 3.5 mph - N/A   Clear
7:53 PM 75.0 °F - 69.1 °F 82% 30.09 in 10.0 mi Calm Calm - N/A   Clear
8:53 PM 73.9 °F - 68.0 °F 82% 30.10 in 10.0 mi Calm Calm - N/A   Clear
9:53 PM 73.0 °F - 66.9 °F 81% 30.12 in 10.0 mi Calm Calm - N/A   Clear
10:53 PM 71.1 °F - 66.9 °F 87% 30.13 in 10.0 mi Calm Calm - N/A   Clear
11:53 PM 70.0 °F - 66.0 °F 87% 30.13 in 10.0 mi Calm Calm - N/A   Clear